VOE97EA LFQQ-LFKJ

Flight info

Callsign VOE97EA
Flight time N/A
Altitude 29000
Route VERMA T372 LESDO DCT KOVIN DCT DUCRA UM728 KETEX/N0432F350 DCT KOTIS DCT KUKOR DCT UTUVA DCT TITVA DCT NOQAS DCT OTROT DCT RETNO DCT KOLON DCT OMARD M623 VAREK
Aircraft A319/M-SDE3FGHIRWY/LB1

Departure

Time 2026-04-30 19:33
Airport Lille Airport (LFQQ)

Arrival

Time N/A
Airport Ajaccio Napoléon Bonaparte airport (LFKJ)
Time Latitude Longitude Altitude Speed Heading
2026-04-30 19:10 50.57135 3.10821 152 ft 0 kts 348°
2026-04-30 19:18 50.57134 3.10821 152 ft 0 kts 348°
2026-04-30 19:26 50.57134 3.10812 152 ft 1 kts 283°
2026-04-30 19:26 50.57127 3.10810 152 ft 3 kts 201°
2026-04-30 19:27 50.57066 3.10758 152 ft 11 kts 250°
2026-04-30 19:27 50.56917 3.10727 152 ft 15 kts 167°
2026-04-30 19:28 50.56828 3.10684 151 ft 15 kts 243°
2026-04-30 19:28 50.56778 3.10348 151 ft 17 kts 257°
2026-04-30 19:29 50.56724 3.09969 152 ft 20 kts 257°
2026-04-30 19:29 50.56692 3.09748 152 ft 21 kts 257°
2026-04-30 19:30 50.56585 3.09082 151 ft 17 kts 223°
2026-04-30 19:30 50.56388 3.09005 153 ft 16 kts 252°
2026-04-30 19:31 50.56337 3.08641 153 ft 18 kts 259°
2026-04-30 19:31 50.56343 3.08448 152 ft 16 kts 287°
2026-04-30 19:31 50.56297 3.08373 152 ft 9 kts 86°
2026-04-30 19:32 50.56307 3.08433 152 ft 0 kts 78°
2026-04-30 19:32 50.56307 3.08435 152 ft 1 kts 78°
2026-04-30 19:32 50.56311 3.08463 152 ft 9 kts 78°
2026-04-30 19:32 50.56391 3.09025 153 ft 93 kts 77°
2026-04-30 19:33 50.56581 3.10382 226 ft 150 kts 77°
2026-04-30 19:33 50.56791 3.11985 964 ft 150 kts 78°
2026-04-30 19:33 50.56897 3.13590 1730 ft 150 kts 105°
2026-04-30 19:33 50.56246 3.14969 2178 ft 176 kts 145°
2026-04-30 19:34 50.54958 3.15588 2623 ft 206 kts 161°
2026-04-30 19:34 50.53635 3.16611 3237 ft 227 kts 142°
2026-04-30 19:34 50.51123 3.20063 5003 ft 251 kts 136°
2026-04-30 19:35 50.49716 3.21670 5987 ft 257 kts 151°
2026-04-30 19:35 50.47999 3.22580 6962 ft 265 kts 169°
2026-04-30 19:35 50.46149 3.22722 8041 ft 266 kts 176°
2026-04-30 19:35 50.44266 3.22779 8949 ft 274 kts 176°
2026-04-30 19:36 50.42372 3.22835 9937 ft 277 kts 176°
2026-04-30 19:36 50.40399 3.22898 10610 ft 293 kts 176°
2026-04-30 19:36 50.36055 3.23055 11829 ft 321 kts 176°
2026-04-30 19:37 50.33826 3.23135 12657 ft 327 kts 176°
2026-04-30 19:37 50.31531 3.23216 13499 ft 332 kts 176°
2026-04-30 19:37 50.29208 3.23297 14296 ft 337 kts 176°
2026-04-30 19:37 50.26842 3.23379 15051 ft 341 kts 176°
2026-04-30 19:38 50.24450 3.23466 15798 ft 345 kts 176°
2026-04-30 19:38 50.22064 3.23557 16528 ft 348 kts 176°
2026-04-30 19:38 50.19620 3.23647 17279 ft 352 kts 176°
2026-04-30 19:38 50.17176 3.23734 18018 ft 356 kts 177°
2026-04-30 19:39 50.14674 3.23819 18709 ft 360 kts 176°
2026-04-30 19:39 50.12153 3.23907 19369 ft 363 kts 176°
2026-04-30 19:39 50.09643 3.23997 20020 ft 367 kts 176°
2026-04-30 19:39 50.07075 3.24090 20689 ft 370 kts 176°
2026-04-30 19:40 50.04487 3.24184 21351 ft 373 kts 176°
2026-04-30 19:40 50.01874 3.24275 22011 ft 376 kts 175°
2026-04-30 19:40 49.99295 3.24650 22647 ft 376 kts 166°
2026-04-30 19:40 49.96746 3.25603 23299 ft 378 kts 162°
2026-04-30 19:41 49.94179 3.26614 23942 ft 381 kts 162°
2026-04-30 19:41 49.91604 3.27623 24480 ft 383 kts 163°
2026-04-30 19:41 49.88996 3.28639 25005 ft 386 kts 163°
2026-04-30 19:41 49.86408 3.29646 25518 ft 389 kts 163°
2026-04-30 19:42 49.83738 3.30500 26012 ft 394 kts 170°
2026-04-30 19:42 49.80965 3.30600 26503 ft 401 kts 181°
2026-04-30 19:42 49.78216 3.29859 26980 ft 408 kts 192°
2026-04-30 19:42 49.75532 3.28310 27465 ft 414 kts 200°
2026-04-30 19:43 49.72871 3.26545 27952 ft 416 kts 200°
2026-04-30 19:43 49.70226 3.24798 28426 ft 419 kts 200°
2026-04-30 19:43 49.67528 3.23023 28917 ft 421 kts 200°
2026-04-30 19:44 49.62139 3.19489 29219 ft 408 kts 200°
2026-04-30 19:44 49.59603 3.17817 29221 ft 394 kts 200°
2026-04-30 19:44 49.57085 3.16163 29219 ft 389 kts 200°
2026-04-30 19:45 49.52138 3.12944 29215 ft 387 kts 199°
2026-04-30 19:45 49.47277 3.09321 29216 ft 391 kts 210°
2026-04-30 19:46 49.42767 3.04719 29215 ft 390 kts 210°
2026-04-30 19:46 49.38249 3.00127 29213 ft 390 kts 210°
2026-04-30 19:47 49.33703 2.95523 29210 ft 390 kts 210°
2026-04-30 19:47 49.29185 2.90949 29203 ft 390 kts 210°
2026-04-30 19:48 49.24670 2.86394 29198 ft 390 kts 210°
2026-04-30 19:48 49.20579 2.82282 29194 ft 389 kts 210°
2026-04-30 19:49 49.16055 2.77742 29187 ft 390 kts 210°
2026-04-30 19:49 49.09273 2.70944 29191 ft 390 kts 210°
2026-04-30 19:50 49.04736 2.66414 29189 ft 389 kts 210°
2026-04-30 19:50 49.00223 2.61922 29189 ft 389 kts 210°
2026-04-30 19:51 48.95680 2.57413 29191 ft 389 kts 210°
2026-04-30 19:51 48.91165 2.52930 29191 ft 389 kts 210°
2026-04-30 19:52 48.86631 2.48437 29192 ft 389 kts 210°
2026-04-30 19:52 48.82110 2.43970 29168 ft 388 kts 209°
2026-04-30 19:53 48.77576 2.39498 29171 ft 388 kts 209°
2026-04-30 19:53 48.73057 2.35055 29168 ft 388 kts 209°
2026-04-30 19:54 48.68512 2.30600 29169 ft 388 kts 209°
2026-04-30 19:54 48.64007 2.26188 29167 ft 388 kts 209°
2026-04-30 19:55 48.59358 2.22103 29165 ft 382 kts 198°
2026-04-30 19:55 48.56818 2.21016 29165 ft 378 kts 186°
2026-04-30 19:55 48.54206 2.20713 29165 ft 374 kts 175°
2026-04-30 19:56 48.49165 2.22132 29150 ft 370 kts 163°
2026-04-30 19:56 48.44055 2.24088 29322 ft 391 kts 164°
2026-04-30 19:57 48.41377 2.25102 29462 ft 402 kts 164°
2026-04-30 19:57 48.38617 2.26142 29610 ft 413 kts 164°
2026-04-30 19:57 48.35793 2.27204 29750 ft 422 kts 164°
2026-04-30 19:57 48.32918 2.28283 30062 ft 427 kts 164°
2026-04-30 19:58 48.30064 2.29350 30502 ft 428 kts 164°
2026-04-30 19:58 48.27172 2.30440 30968 ft 427 kts 164°
2026-04-30 19:58 48.24300 2.31558 31444 ft 426 kts 163°
2026-04-30 19:58 48.21426 2.32708 31929 ft 425 kts 163°
2026-04-30 19:59 48.18565 2.33865 32424 ft 424 kts 163°
2026-04-30 19:59 48.15749 2.35002 32918 ft 424 kts 163°
2026-04-30 19:59 48.10089 2.37413 33927 ft 421 kts 161°
2026-04-30 20:00 48.07299 2.38786 34378 ft 420 kts 160°
2026-04-30 20:00 48.04565 2.40196 34771 ft 420 kts 159°
2026-04-30 20:00 48.01794 2.41646 35143 ft 421 kts 159°
2026-04-30 20:00 47.99024 2.43082 35494 ft 421 kts 160°
2026-04-30 20:01 47.93454 2.45889 36176 ft 423 kts 161°
2026-04-30 20:01 47.90686 2.47248 36505 ft 423 kts 161°
2026-04-30 20:01 47.87888 2.48614 36833 ft 423 kts 161°
2026-04-30 20:02 47.82279 2.51362 37466 ft 424 kts 161°
2026-04-30 20:02 47.79473 2.52744 37777 ft 425 kts 161°
2026-04-30 20:03 47.73879 2.55499 38148 ft 426 kts 161°
2026-04-30 20:03 47.71062 2.56882 38149 ft 426 kts 161°
2026-04-30 20:03 47.65423 2.59648 38153 ft 426 kts 161°
2026-04-30 20:04 47.59828 2.62392 38153 ft 426 kts 161°
2026-04-30 20:05 47.51374 2.66509 38157 ft 426 kts 161°
2026-04-30 20:05 47.42956 2.70612 38155 ft 426 kts 161°
2026-04-30 20:06 47.37316 2.73348 38156 ft 425 kts 161°
2026-04-30 20:06 47.31704 2.76052 38157 ft 425 kts 161°
2026-04-30 20:07 47.26100 2.78749 38161 ft 425 kts 161°
2026-04-30 20:08 47.17648 2.82816 38161 ft 425 kts 161°
2026-04-30 20:08 47.12013 2.85530 38166 ft 426 kts 162°
2026-04-30 20:09 47.06393 2.88219 38164 ft 426 kts 162°
2026-04-30 20:09 46.97935 2.92262 38159 ft 427 kts 162°
2026-04-30 20:10 46.89482 2.96273 38166 ft 427 kts 162°
2026-04-30 20:11 46.81012 3.00290 38158 ft 427 kts 162°
2026-04-30 20:11 46.75332 3.02976 38162 ft 428 kts 162°
2026-04-30 20:12 46.66835 3.06965 38177 ft 428 kts 162°
2026-04-30 20:13 46.61182 3.09630 38175 ft 429 kts 162°
2026-04-30 20:13 46.55517 3.12277 38175 ft 429 kts 162°
2026-04-30 20:14 46.49857 3.15085 38179 ft 429 kts 160°
2026-04-30 20:14 46.44293 3.18152 38178 ft 429 kts 159°
2026-04-30 20:15 46.38701 3.21252 38179 ft 429 kts 160°
2026-04-30 20:15 46.33134 3.24270 38176 ft 429 kts 160°
2026-04-30 20:16 46.27511 3.27264 38172 ft 429 kts 160°
2026-04-30 20:16 46.21937 3.30220 38167 ft 429 kts 160°
2026-04-30 20:17 46.16313 3.33213 38164 ft 430 kts 160°
2026-04-30 20:17 46.10721 3.36207 38166 ft 430 kts 160°
2026-04-30 20:18 46.05075 3.39201 38173 ft 431 kts 161°
2026-04-30 20:18 45.99464 3.42164 38178 ft 431 kts 161°